Flag for Germany Weather past 2 weeks in Neustadt am Rübenberge, Lower Saxony, Germany

Now
45 °F

Quite cool.


Feels Like: 36 °F
Forecast: 47 / 53 °F
Wind: 21 mph from Southwest

Location: Wunstorf Airport

Current Time: Dec 21, 2014 at 9:54:54 PM

Latest Report: Dec 21, 2014 at 9:20 PM


Visibility: 4 mi

Pressure: 30.07 "Hg

Humidity: 87%

Dew point: 41 °F

Location of Neustadt am RübenbergeLocation

Historic Weather in Neustadt am Rübenberge — Graph

°F

Neustadt am Rübenberge temperature yesterday

Maximum temperature yesterday: 45 °F (at 1:20 AM)
Minimum temperature yesterday: 39 °F (at 3:20 PM)
Average temperature yesterday: 42 °F

Past Weeks' High & Low Weather Summary

 TemperatureHumidityPressure
High54 °F (Dec 18, 5:20 PM)100% (Dec 7, 2:20 AM)30.33 "Hg (Dec 7, 2:20 AM)
Low30 °F (Dec 14, 7:20 PM)66% (Dec 7, 4:20 PM)29.30 "Hg (Dec 12, 2:20 PM)
Average41 °F87%29.88 "Hg
* Reported Dec 6 8:20 PM — Dec 21 8:20 PM, Neustadt am Rübenberge, Weather by CustomWeather, © 2014

Note: Actual official high and low records may vary slightly from our data, if they occured in-between our weather recording intervals... More about our weather records

Advertising

Neustadt am Rübenberge weather history for previous 24 hours

 ConditionsComfort  
Time TempWeatherWind HumidityBarometerVisibility
8:20 PM
Dec 21
45 °FQuite cool.20 mph87%30.09 "Hg4 mi
7:20 PM45 °FQuite cool.20 mph87%30.09 "Hg4 mi
6:20 PM45 °FQuite cool.18 mph81%30.09 "Hg4 mi
5:20 PM45 °FQuite cool.18 mph81%30.12 "Hg4 mi
4:20 PM43 °FQuite cool.16 mph87%30.15 "Hg3 mi
3:20 PM45 °FQuite cool.14 mph81%30.18 "Hg4 mi
2:20 PM45 °FQuite cool.16 mph81%30.18 "Hg4 mi
1:20 PM43 °FQuite cool.15 mph87%30.21 "Hg4 mi
12:20 PM43 °FQuite cool.15 mph87%30.24 "Hg3 mi
11:20 AM43 °FQuite cool.13 mph87%30.27 "Hg4 mi
10:20 AM41 °FQuite cool.14 mph93%30.27 "Hg3 mi
9:20 AM39 °FChilly.13 mph93%30.27 "Hg3 mi
8:20 AM39 °FChilly.10 mph93%30.27 "Hg4 mi
7:20 AM39 °FChilly.8 mph93%30.27 "Hg4 mi
6:20 AM41 °FQuite cool.12 mph87%30.24 "Hg4 mi
5:20 AM41 °FQuite cool.12 mph87%30.24 "Hg4 mi
4:20 AM41 °FQuite cool.12 mph87%30.24 "Hg4 mi
3:20 AM41 °FQuite cool.14 mph81%30.21 "Hg4 mi
2:20 AM41 °FQuite cool.15 mph81%30.18 "Hg3 mi
1:20 AM41 °FQuite cool.17 mph81%30.15 "Hg4 mi
12:20 AM41 °FQuite cool.16 mph81%30.15 "Hg4 mi
11:20 PM
Dec 20
39 °FChilly.15 mph87%30.12 "Hg4 mi
10:20 PM39 °FChilly.16 mph87%30.09 "Hg4 mi
9:20 PM41 °FQuite cool.16 mph81%30.07 "Hg4 mi
Weather by CustomWeather, © 2014

See weather overviewHow to use our weather pages